sat.trackr.live / text

‹ back to catalog

ONEWEB-0013

NORAD 45131 · 2020-008A

PAYLOAD ACTIVE UNKNOWN

§ Identity

Operator
Country
UK
Launch date
2020-02-06
Launch site
TYMSC
Launch vehicle
Mass (kg)
RCS (m²)

Purposes: comms

External: N2YO · Heavens-Above · Gunter

§ Orbital elements

Epoch: 2026-09-04T04:17:22.941600Z

Period
109.97 min
Inclination
87.8531°
Eccentricity
0.0002464
Mean motion
13.09460835 rev/d
Perigee alt
1,223.4 km
Apogee alt
1,227.1 km
Semi-major
7,603.4 km
B*
2.1308e-3
RAAN
36.8734°
Arg perigee
115.4753°
Mean anomaly
244.6629°
Rev number
31,640

§ Raw data

ONEWEB-00131 45131U 20008A   26247.17873775  .00000747  00000+0  21308-2 0  99932 45131  87.8531  36.8734 0002464 115.4753 244.6629 13.09460835316407

JSON: /api/v1/satellites/45131 · /tle

For live sub-satellite position, see the globe view (requires WebGL).

§ Visibility from observer

Set your observer location to see the next 7 days of passes ≥ 10°. The values pass through the URL so the page stays shareable.

No JS? Fill the form by hand. The geolocation button needs JavaScript.